Torna al catalogo

STARLINK-33614

AttivoComunicazioniVLEO
NORAD 63372·PAYLOAD·🇺🇸 United States

Lanciato Mar 26, 2025 da Vandenberg Space Force Base

Loading…

Prossimi Passaggi (prossime 24 ore)

TLE

AggiornatoSource: CelesTrak SupGP

Epoca: Sep 14, 2026, 22:49 UTC

1 63372C 25063K   26257.95118056  .00034983  00000+0  10335-2 0  2571
2 63372  53.1569 247.8543 0001383  90.6651 277.6063 15.34375867    18

Traccia STARLINK-33614 in tempo reale con AllMySat

Download on the App Store